Simultaneous Nadir Overpasses (SNOs) Predictions

Prediction of SNOs between GOES-14 and NOAA-20 Satellite Orbit:

Table of predicted SNOs for the next 14.0 days since TLE Epoch: 10/25/2019
Index Date Time (GOES-14) GOES-14 Lat,Lon NOAA-20 Lat,Lon Distance(km) Time Diff (sec)
1 10/26/2019 20:26:38 -0.17,-104.14 -0.54,-105.76 183.89 80
2 10/27/2019 20:10:33 -0.18,-104.15 0.48,-101.23 333.63 80
3 10/29/2019 08:32:22 0.16,-104.23 0.69,-106.50 258.94 80
4 10/30/2019 08:10:57 0.18,-104.22 -0.32,-101.97 256.67 80
5 10/31/2019 20:32:54 -0.15,-104.13 -0.87,-107.27 358.47 80
6 11/01/2019 20:16:49 -0.16,-104.14 0.14,-102.74 158.94 80
7 11/03/2019 08:38:38 0.13,-104.25 0.96,-108.03 430.40 80
8 11/04/2019 08:17:13 0.15,-104.24 0.01,-103.48 85.37 80
9 11/06/2019 20:20:25 -0.13,-104.13 -0.18,-104.26 15.12 80




NCC Satellite Simultaneous Nadir Overpasses (SNOs) Prediction Service
